EW7351 Weather Reports


time (UTC)temp
C
wind
direction
speed
KPH
gust
KPH
rain 1hr
cm
rain 24hr
cm
rain mn
cm
humidity
%
barometer
mb
20220811232925 35 63 4.8 12.9 0.00 1.96 0.03 39 1010.3
20220811232425 35 51 3.2 14.5 0.00 1.96 0.03 39 1010.3
20220811232152 35 23 4.8 16.1 0.00 1.96 0.03 38 1010.4
20220811232031 35 4 3.2 14.5 0.00 1.96 0.03 38 1010.4
20220811231208 35 8 6.4 19.3 0.00 1.96 0.03 39 1010.3
20220811230923 35 34 4.8 14.5 0.00 1.96 0.03 39 1010.4
20220811230542 35 349 6.4 19.3 0.00 1.96 0.03 39 1010.4
20220811225750 36 60 6.4 14.5 0.00 2.08 0.03 38 1010.5
20220811225640 35 52 4.8 14.5 0.00 2.01 0.03 38 1010.4
20220811225019 36 10 6.4 16.1 0.00 2.11 0.03 38 1010.5
20220811224520 36 0 4.8 12.9 0.00 2.16 0.03 37 1010.4
20220811223910 36 55 4.8 16.1 0.00 2.16 0.03 38 1010.4
20220811222918 36 70 3.2 11.3 0.00 2.16 0.03 37 1010.4
20220811222411 36 359 1.6 6.4 0.00 2.16 0.03 38 1010.4
20220811221914 36 59 3.2 11.3 0.00 2.16 0.03 39 1010.5
20220811221910 36 44 3.2 11.3 0.00 2.16 0.03 39 1010.4
20220811220907 36 358 3.2 11.3 0.00 2.16 0.03 39 1010.7
20220811220637 35 85 3.2 14.5 0.00 2.16 0.03 40 1010.7
20220811220137 35 76 4.8 14.5 0.00 2.16 0.03 41 1010.8
20220811215403 36 333 4.8 14.5 0.00 2.21 0.03 41 1010.8
20220811214903 36 131 3.2 12.9 0.00 2.54 0.03 41 1011.0
20220811214635 36 217 1.6 9.7 0.00 2.69 0.03 42 1010.8
20220811214512 36 13 3.2 9.7 0.00 3.10 0.03 42 1011.1
20220811214012 35 65 1.6 9.7 0.00 3.89 0.03 43 1011.2
20220811212904 35 158 1.6 11.3 0.00 4.22 0.03 43 1011.2
20220811212408 35 124 3.2 9.7 0.00 4.34 0.03 44 1011.4
20220811212404 35 326 3.2 11.3 0.00 4.34 0.03 43 1011.3
20220811211409 35 15 3.2 9.7 0.00 4.34 0.03 44 1011.6
20220811211405 35 64 3.2 8.0 0.00 4.34 0.03 44 1011.4
20220811210404 35 61 1.6 12.9 0.00 4.34 0.03 46 1011.6
20220811210136 35 108 3.2 14.5 0.00 4.34 0.03 46 1011.8
20220811205405 35 321 4.8 14.5 0.00 4.34 0.03 46 1011.8
20220811205138 35 117 3.2 12.9 0.00 4.34 0.03 45 1011.7
20220811205011 35 275 4.8 12.9 0.00 4.34 0.03 45 1011.8
20220811204138 35 56 4.8 12.9 0.00 4.34 0.03 45 1012.0
20220811204016 35 330 1.6 9.7 0.00 4.34 0.03 46 1012.1
20220811204012 35 323 3.2 11.3 0.00 4.34 0.03 45 1011.9
20220811202905 35 52 3.2 8.0 0.00 4.34 0.03 46 1012.0
20220811201907 35 333 3.2 12.9 0.00 4.34 0.03 47 1012.2
20220811201902 35 79 3.2 12.9 0.00 4.34 0.03 48 1012.1
20220811201240 34 270 3.2 12.9 0.00 4.34 0.03 48 1012.3
20220811201134 35 34 3.2 12.9 0.00 4.34 0.03 48 1012.2
20220811200129 34 88 3.2 9.7 0.00 4.34 0.03 49 1012.4
20220811195359 34 345 4.8 12.9 0.00 4.34 0.03 49 1012.5
20220811194858 33 31 4.8 12.9 0.00 4.34 0.03 49 1012.6
20220811194357 34 63 4.8 9.7 0.00 4.34 0.03 48 1012.6
20220811193903 33 96 4.8 11.3 0.00 4.34 0.03 52 1012.9
20220811193858 34 35 3.2 9.7 0.00 4.34 0.03 50 1012.8
20220811193738 33 15 3.2 11.3 0.00 4.34 0.03 52 1013.1
20220811193129 33 355 3.2 11.3 0.00 4.34 0.03 50 1013.0
20220811191858 33 355 4.8 12.9 0.00 4.34 0.03 51 1013.2
20220811191358 33 343 4.8 12.9 0.00 4.34 0.03 49 1013.4
20220811191237 33 32 3.2 17.7 0.00 4.34 0.03 52 1013.4
20220811191130 33 32 3.2 17.7 0.00 4.34 0.03 51 1013.4
20220811190237 33 27 1.6 11.3 0.00 4.34 0.03 52 1013.5
20220811185858 33 20 3.2 9.7 0.00 4.34 0.03 51 1013.5
20220811185628 33 169 1.6 11.3 0.00 4.34 0.03 52 1013.5
20220811184629 33 353 1.6 6.4 0.00 4.34 0.03 53 1013.6
20220811183858 33 311 1.6 8.0 0.00 4.34 0.03 52 1013.6
20220811183629 33 9 1.6 8.0 0.00 4.34 0.03 52 1013.7
20220811183134 32 48 1.6 11.3 0.00 4.34 0.03 55 1013.9
20220811182859 33 73 1.6 11.3 0.00 4.34 0.03 53 1013.9
20220811181858 32 94 3.2 9.7 0.00 4.34 0.03 55 1014.1
20220811181358 32 194 3.2 9.7 0.00 4.34 0.03 56 1014.1
20220811180858 32 54 3.2 9.7 0.00 4.34 0.03 55 1014.2
20220811180401 32 72 1.6 11.3 0.00 4.34 0.03 57 1014.2
20220811175900 32 75 1.6 11.3 0.00 4.34 0.03 57 1014.3
20220811175633 32 41 1.6 4.8 0.00 4.34 0.03 57 1014.4
20220811175509 31 18 3.2 12.9 0.00 4.34 0.03 60 1014.5
20220811175355 32 323 1.6 12.9 0.00 4.34 0.03 60 1014.4
20220811174117 31 27 1.6 8.0 0.00 4.34 0.03 61 1014.5
20220811173346 31 63 3.2 9.7 0.00 4.34 0.03 62 1014.6
20220811172844 31 356 3.2 9.7 0.00 4.34 0.03 61 1014.7
20220811172615 31 314 1.6 8.0 0.00 4.34 0.03 63 1014.6
20220811171844 31 341 3.2 11.3 0.00 4.34 0.03 64 1014.7
20220811171341 31 344 1.6 11.3 0.00 4.34 0.03 65 1014.7
20220811170834 30 105 3.2 9.7 0.00 4.34 0.03 66 1014.7
20220811170608 30 62 3.2 11.3 0.00 4.34 0.03 65 1014.8
20220811170333 30 83 3.2 11.3 0.00 4.34 0.03 65 1014.7
20220811165329 30 58 3.2 9.7 0.00 4.34 0.03 67 1014.8
20220811165100 30 72 3.2 11.3 0.00 4.34 0.03 64 1014.9
20220811164936 30 77 4.8 11.3 0.00 4.34 0.03 67 1014.9
20220811163826 30 17 4.8 12.9 0.00 4.34 0.03 67 1015.0
20220811163332 30 25 3.2 12.9 0.00 4.34 0.03 69 1014.9
20220811163327 30 42 3.2 12.9 0.00 4.34 0.03 68 1014.9
20220811162327 30 70 3.2 12.9 0.00 4.34 0.03 69 1014.9
20220811161826 30 79 1.6 11.3 0.00 4.34 0.03 69 1014.9
20220811161327 30 111 1.6 8.0 0.00 4.34 0.03 70 1014.9
20220811160826 30 60 1.6 8.0 0.00 4.34 0.03 70 1014.9
20220811160325 30 86 1.6 6.4 0.00 4.34 0.03 71 1014.9
20220811160056 29 32 3.2 9.7 0.00 4.34 0.03 71 1014.9
20220811155600 29 64 3.2 11.3 0.00 4.34 0.03 71 1014.8
20220811155325 29 346 3.2 9.7 0.00 4.34 0.03 73 1014.8
20220811154931 29 343 1.6 8.0 0.00 4.34 0.03 73 1014.8
20220811154324 29 0 1.6 11.3 0.00 4.34 0.03 70 1014.8
20220811153323 28 67 1.6 9.7 0.00 4.34 0.03 74 1014.7
20220811152822 28 15 3.2 9.7 0.00 4.34 0.03 74 1014.7
20220811152323 28 321 1.6 8.0 0.00 4.34 0.03 77 1014.7
20220811152046 28 317 0.0 4.8 0.00 4.34 0.03 78 1014.7
20220811151316 28 354 1.6 6.4 0.00 4.34 0.03 78 1014.7
20220811151312 28 46 1.6 6.4 0.00 4.34 0.03 77 1014.6
20220811150306 28 314 1.6 6.4 0.00 4.34 0.03 79 1014.7
20220811145809 28 44 0.0 3.2 0.00 4.34 0.03 79 1014.7
20220811145306 28 41 0.0 3.2 0.00 4.34 0.03 79 1014.9
20220811144808 27 25 0.0 3.2 0.00 4.34 0.03 80 1014.9
20220811144804 28 76 0.0 1.6 0.00 4.34 0.03 80 1014.9
20220811143909 26 21 0.0 4.8 0.00 4.34 0.03 85 1014.8
20220811143803 27 23 0.0 4.8 0.00 4.34 0.03 81 1014.8
20220811143531 27 82 0.0 4.8 0.00 4.34 0.03 82 1014.8
20220811142800 27 352 0.0 3.2 0.00 4.34 0.03 83 1014.8
20220811141802 26 17 0.0 4.8 0.00 4.34 0.03 83 1014.8
20220811141758 26 359 0.0 3.2 0.00 4.34 0.03 85 1014.8
20220811140753 26 359 0.0 3.2 0.00 4.34 0.03 83 1014.8
20220811140528 26 354 0.0 1.6 0.00 4.34 0.03 85 1014.8
20220811135755 26 19 0.0 0.0 0.00 4.34 0.03 88 1014.6
20220811135750 26 354 0.0 1.6 0.00 4.34 0.03 84 1014.8
20220811135632 26 19 0.0 0.0 0.00 4.34 0.03 86 1014.7
20220811135249 26 19 0.0 0.0 0.00 4.34 0.03 86 1014.7
20220811133744 25 19 0.0 0.0 0.00 4.34 0.03 90 1014.6
20220811133514 25 19 0.0 0.0 0.00 4.34 0.03 89 1014.6
20220811132743 25 30 0.0 0.0 0.00 4.34 0.03 90 1014.5
20220811132354 24 30 0.0 0.0 0.00 4.34 0.03 95 1014.5
20220811132243 25 30 0.0 0.0 0.00 4.34 0.03 93 1014.5
20220811132015 24 30 0.0 0.0 0.00 4.34 0.03 94 1014.5
20220811130743 23 30 0.0 0.0 0.00 4.34 0.03 96 1014.6
20220811130247 23 30 0.0 0.0 0.00 4.34 0.03 97 1014.6
20220811130242 23 30 0.0 0.0 0.00 4.34 0.03 96 1014.6
20220811130120 23 30 0.0 0.0 0.00 4.34 0.03 97 1014.6
20220811125956 23 260 0.0 0.0 0.00 4.34 0.03 97 1014.6
20220811124732 22 260 0.0 0.0 0.00 4.34 0.03 97 1014.5
20220811124223 22 260 0.0 0.0 0.00 4.34 0.03 97 1014.6
20220811123722 22 260 0.0 0.0 0.00 4.34 0.03 97 1014.6
20220811122725 22 260 0.0 0.0 0.00 4.34 0.03 97 1014.6
20220811122719 22 260 0.0 0.0 0.00 4.34 0.03 97 1014.6
20220811122220 22 260 0.0 0.0 0.00 4.34 0.03 97 1014.6
20220811121219 21 260 0.0 0.0 0.00 4.34 0.03 97 1014.6
20220811120720 21 260 0.0 0.0 0.00 4.34 0.03 97 1014.6
20220811120220 21 260 0.0 0.0 0.00 4.34 0.03 97 1014.6
20220811115720 21 260 0.0 0.0 0.00 4.34 0.03 97 1014.6
20220811115450 21 260 0.0 0.0 0.00 4.34 0.03 97 1014.5
20220811114719 21 260 0.0 0.0 0.00 4.34 0.03 97 1014.5
20220811114219 21 260 0.0 0.0 0.00 4.34 0.03 97 1014.5
20220811113719 22 260 0.0 0.0 0.00 4.34 0.03 97 1014.6
20220811113219 22 260 0.0 0.0 0.00 4.34 0.03 97 1014.5
20220811112720 22 260 0.0 0.0 0.00 4.34 0.03 97 1014.5
20220811112715 22 260 0.0 0.0 0.00 4.34 0.03 97 1014.6
20220811111715 22 260 0.0 0.0 0.00 4.34 0.03 97 1014.4
20220811111443 22 260 0.0 0.0 0.00 4.34 0.03 97 1014.4
20220811110711 22 260 0.0 0.0 0.00 4.34 0.03 97 1014.4
20220811110446 22 261 0.0 0.0 0.00 4.34 0.03 97 1014.3
20220811110211 22 261 0.0 0.0 0.00 4.34 0.03 97 1014.4
20220811105211 22 261 0.0 0.0 0.00 4.34 0.03 97 1014.3
20220811104711 22 261 0.0 0.0 0.00 4.34 0.03 97 1014.3
20220811104212 22 261 0.0 0.0 0.00 4.34 0.03 97 1014.3
20220811103711 22 261 0.0 0.0 0.00 4.34 0.03 97 1014.3
20220811103212 22 261 0.0 0.0 0.00 4.34 0.03 97 1014.3
20220811102943 22 261 0.0 0.0 0.00 4.34 0.03 97 1014.2
20220811102207 22 261 0.0 0.0 0.00 4.34 0.03 97 1014.1
20220811101707 22 261 0.0 0.0 0.00 4.34 0.03 97 1014.1
20220811101211 22 261 0.0 0.0 0.00 4.34 0.03 97 1014.1
20220811101207 22 261 0.0 0.0 0.00 4.34 0.03 97 1014.1
20220811100547 22 261 0.0 0.0 0.00 4.34 0.03 97 1014.1
20220811100211 22 261 0.0 0.0 0.00 4.34 0.03 97 1014.1
20220811100207 22 261 0.0 0.0 0.00 4.34 0.03 97 1014.1
20220811095207 22 261 0.0 0.0 0.00 4.34 0.03 97 1014.1
20220811094200 22 261 0.0 0.0 0.00 4.34 0.03 97 1014.1
20220811093651 22 261 0.0 0.0 0.00 4.34 0.03 97 1014.1
20220811093151 22 261 0.0 0.0 0.00 4.34 0.03 97 1014.1
20220811092650 22 261 0.0 0.0 0.00 4.34 0.03 97 1014.1
20220811092149 22 147 0.0 0.0 0.00 4.34 0.03 97 1014.1
20220811091649 22 147 0.0 0.0 0.00 4.34 0.03 97 1014.1
20220811091147 22 147 0.0 0.0 0.00 4.34 0.03 97 1014.3
20220811090645 22 147 0.0 0.0 0.00 4.34 0.03 97 1014.3
20220811090144 22 147 0.0 0.0 0.00 4.34 0.03 97 1014.2
20220811085920 22 147 0.0 0.0 0.00 4.34 0.03 97 1014.2
20220811085643 22 147 0.0 0.0 0.00 4.34 0.03 97 1014.3
20220811084911 22 147 0.0 0.0 0.00 4.34 0.03 97 1014.2
20220811084142 22 147 0.0 0.0 0.00 4.34 0.03 97 1014.3
20220811083642 22 147 0.0 0.0 0.00 4.34 0.03 97 1014.3
20220811083140 22 147 0.0 0.0 0.00 4.34 0.03 97 1014.2
20220811082641 22 147 0.0 0.0 0.00 4.34 0.03 97 1014.2
20220811082413 22 147 0.0 0.0 0.00 4.34 0.03 97 1014.1
20220811081912 22 147 0.0 0.0 0.00 4.34 0.03 97 1014.2
20220811081141 22 147 0.0 0.0 0.00 4.34 0.03 97 1014.2
20220811080641 22 147 0.0 0.0 0.00 4.34 0.03 97 1014.2
20220811080140 22 147 0.0 0.0 0.00 4.34 0.03 97 1014.2
20220811075646 22 147 0.0 0.0 0.00 4.34 0.03 97 1014.3
20220811075518 22 147 0.0 0.0 0.00 4.34 0.03 97 1014.2
20220811075411 22 147 0.0 0.0 0.00 4.34 0.03 97 1014.3
20220811074412 22 147 0.0 0.0 0.00 4.34 0.03 97 1014.2
20220811073644 22 147 0.0 0.0 0.00 4.34 0.03 97 1014.1
20220811073414 22 147 0.0 0.0 0.00 4.34 0.03 97 1014.1
20220811072641 22 147 0.0 0.0 0.00 4.34 0.03 97 1014.1
20220811072141 22 147 0.0 0.0 0.00 4.34 0.03 98 1014.1
20220811072019 22 147 0.0 0.0 0.00 4.34 0.03 98 1014.2
20220811071912 22 147 0.0 0.0 0.00 4.34 0.03 98 1014.2
20220811070642 22 147 0.0 0.0 0.00 4.34 0.03 98 1014.2
20220811070141 22 147 0.0 0.0 0.00 4.34 0.03 98 1014.2
20220811065912 22 147 0.0 0.0 0.00 4.34 0.03 97 1014.3
20220811065750 22 147 0.0 0.0 0.00 4.34 0.03 97 1014.3
20220811065251 22 147 0.0 0.0 0.00 4.34 0.03 97 1014.3
20220811064137 22 147 0.0 0.0 0.00 4.34 0.03 97 1014.4
20220811063908 22 147 0.0 0.0 0.00 4.34 0.03 97 1014.4
20220811063748 22 147 0.0 0.0 0.00 4.34 0.03 97 1014.5
20220811062635 22 147 0.0 0.0 0.00 4.34 0.03 97 1014.5
20220811062135 22 147 0.0 0.0 0.00 4.34 0.03 97 1014.5
20220811061907 22 147 0.0 0.0 0.00 4.34 0.03 97 1014.5
20220811061407 22 147 0.0 0.0 0.00 4.34 0.03 97 1014.5
20220811060636 22 147 0.0 0.0 0.03 4.34 0.03 97 1014.6
20220811060139 22 147 0.0 0.0 0.03 4.34 0.03 97 1014.6
20220811060135 22 147 0.0 0.0 0.03 4.34 0.03 97 1014.6
20220811055403 22 147 0.0 0.0 0.03 4.34 0.03 97 1014.7
20220811054630 22 147 0.0 0.0 0.03 4.34 0.03 97 1014.6
20220811054136 22 147 0.0 0.0 0.03 4.34 0.03 97 1014.6
20220811054132 22 147 0.0 0.0 0.03 4.34 0.03 97 1014.7
20220811053631 22 147 0.0 0.0 0.03 4.34 0.03 97 1014.6
20220811053238 22 147 0.0 0.0 0.03 4.34 0.03 97 1014.6
20220811053007 22 147 0.0 0.0 0.03 4.34 0.03 97 1014.6
20220811051627 22 147 0.0 0.0 0.03 4.34 0.03 97 1014.6
20220811051359 22 147 0.0 0.0 0.03 4.34 0.03 97 1014.6
20220811050635 22 147 0.0 0.0 0.00 4.32 0.00 97 1014.6
20220811050625 22 147 0.0 0.0 0.00 4.32 0.00 97 1014.6
20220811050123 22 147 0.0 0.0 0.00 4.32 4.32 97 1014.6
20220811050000 22 147 0.0 0.0 0.00 4.32 4.32 97 1014.6
20220811045838 22 147 0.0 0.0 0.00 4.32 4.32 97 1014.5
20220811044120 22 147 0.0 0.0 0.00 4.32 4.32 97 1014.5
20220811043851 22 147 0.0 0.0 0.00 4.32 4.32 97 1014.6
20220811043352 22 147 0.0 1.6 0.00 4.32 4.32 97 1014.6
20220811042851 22 147 0.0 3.2 0.00 4.32 4.32 97 1014.7
20220811042356 22 150 0.0 0.0 0.00 4.32 4.32 97 1014.7
20220811042120 22 120 0.0 3.2 0.00 4.32 4.32 97 1014.7
20220811041727 22 150 0.0 0.0 0.00 4.32 4.32 97 1014.7
20220811040620 23 140 0.0 0.0 0.00 4.32 4.32 97 1014.7
20220811040120 23 140 0.0 1.6 0.00 4.32 4.32 97 1014.7
20220811035623 23 163 0.0 1.6 0.00 4.32 4.32 97 1014.8
20220811035123 23 120 0.0 6.4 0.00 4.32 4.32 97 1014.7
20220811034853 23 155 0.0 6.4 0.00 4.32 4.32 97 1014.6
20220811034730 23 103 0.0 3.2 0.00 4.32 4.32 97 1014.8
20220811033854 23 111 0.0 4.8 0.00 4.32 4.32 97 1014.7
20220811033618 23 122 0.0 4.8 0.00 4.32 4.32 97 1014.6
20220811033223 23 92 0.0 1.6 0.00 4.32 4.32 97 1014.6
20220811032115 23 61 0.0 4.8 0.00 4.32 4.32 97 1014.6
20220811031614 23 58 0.0 4.8 0.00 4.32 4.32 97 1014.7
20220811031115 23 143 0.0 1.6 0.00 4.32 4.32 97 1014.5
20220811030615 23 98 0.0 0.0 0.00 4.32 4.32 97 1014.4
20220811030114 23 122 0.0 0.0 0.00 4.32 4.32 97 1014.1
20220811025842 23 122 0.0 0.0 0.00 4.32 4.32 97 1013.9
20220811025337 23 142 0.0 0.0 0.00 4.32 4.32 97 1013.8
20220811024606 23 124 0.0 1.6 0.00 4.32 4.32 97 1013.8
20220811024106 23 124 0.0 1.6 0.00 4.32 4.32 97 1013.6
20220811023606 23 161 0.0 0.0 0.00 4.32 4.32 97 1013.4
20220811023111 23 266 0.0 0.0 0.00 4.32 4.32 97 1013.2
20220811023106 23 328 0.0 0.0 0.00 4.32 4.32 97 1013.4
20220811022107 23 266 0.0 0.0 0.00 4.32 4.32 97 1013.1
20220811021605 23 266 0.0 0.0 0.00 4.32 4.32 97 1012.9
20220811021105 23 266 0.0 0.0 0.00 4.32 4.32 97 1012.8
20220811020606 23 266 0.0 0.0 0.00 4.32 4.32 97 1012.7
20220811020103 23 266 0.0 0.0 0.00 4.32 4.32 97 1012.7
20220811015833 23 266 0.0 0.0 0.00 4.32 4.32 96 1012.6
20220811015103 23 266 0.0 1.6 0.00 4.32 4.32 96 1012.6
20220811014833 23 266 0.0 1.6 0.00 4.32 4.32 96 1012.5
20220811014102 23 237 0.0 0.0 0.00 4.32 4.32 96 1012.5
20220811013833 23 237 0.0 0.0 0.00 4.32 4.32 96 1012.4
20220811013106 23 237 0.0 0.0 0.03 4.32 4.32 96 1012.5
20220811013102 23 237 0.0 0.0 0.00 4.32 4.32 96 1012.5
20220811012102 23 237 0.0 0.0 0.03 4.32 4.32 96 1012.5
20220811011602 23 237 0.0 0.0 0.03 4.32 4.32 96 1012.5
20220811011333 23 237 0.0 0.0 0.05 4.32 4.32 97 1012.5
20220811010603 23 237 0.0 0.0 0.10 4.32 4.32 96 1012.6
20220811010332 22 237 0.0 0.0 0.28 4.32 4.32 96 1012.8
20220811010057 21 260 0.0 1.6 1.93 4.32 4.32 95 1013.5
20220811005931 22 237 0.0 0.0 1.07 4.32 4.32 96 1012.8
20220811005215 21 260 0.0 0.0 1.93 4.32 4.32 95 1013.2
20220811005157 22 234 0.0 1.6 1.50 4.32 4.32 96 1012.7
20220811004656 22 249 0.0 1.6 1.91 4.32 4.32 96 1012.8
20220811004425 22 260 0.0 0.0 1.93 4.32 4.32 96 1012.9
20220811003435 21 261 0.0 4.8 1.91 4.29 4.32 94 1013.6
20220811002334 21 272 0.0 6.4 1.91 4.29 4.29 94 1013.9
20220811002058 21 244 0.0 6.4 1.91 4.29 4.29 94 1013.7
20220811001331 21 170 0.0 1.6 1.88 4.27 4.27 92 1013.9
20220811001207 22 170 1.6 6.4 1.83 4.22 4.22 91 1014.1
20220811000446 23 242 11.3 38.6 0.91 3.25 3.33 85 1015.6
20220811000329 22 230 6.4 38.6 1.65 4.04 4.09 89 1014.4
20220810235056 23 58 8.0 25.7 0.56 2.82 2.84 88 1015.3
20220810234826 24 113 4.8 17.7 0.18 2.41 2.44 89 1015.3
20220810234708 24 279 3.2 14.5 0.18 2.39 2.39 92 1015.3
20220810234703 23 65 0.0 0.0 0.20 2.39 2.39 93 1014.9
20220810233549 23 335 0.0 11.3 0.20 2.39 2.39 93 1015.4